This is the latest recevied weather packets stored in our database for station/object S57D-6. If no packets are shown the sender has not sent any weather packets the latest 10 day(s).
| Time | Temp. | Humidity | Pressure | Rain* | Wind** | Luminosity | Snow |
|---|---|---|---|---|---|---|---|
| 1777909932 | 23.89° C | 37% | 1014.2 hPa | 0 mm | - | - | - |
| 1777909633 | 23.89° C | 37% | 1014 hPa | 0 mm | - | - | - |
| 1777909271 | 23.89° C | 37% | 1014.2 hPa | 0 mm | - | - | - |
| 1777908970 | 24.44° C | 37% | 1014.1 hPa | 0 mm | - | - | - |
| 1777908671 | 23.89° C | 37% | 1014.1 hPa | 0 mm | - | - | - |
| 1777908370 | 23.89° C | 39% | 1014.1 hPa | 0 mm | - | - | - |
| 1777908070 | 23.33° C | 39% | 1014.2 hPa | 0 mm | - | - | - |
| 1777907769 | 23.33° C | 39% | 1014.3 hPa | 0 mm | - | - | - |
| 1777907470 | 23.89° C | 38% | 1014.4 hPa | 0 mm | - | - | - |
| 1777907169 | 23.89° C | 38% | 1014.4 hPa | 0 mm | - | - | - |
| 1777906869 | 23.89° C | 39% | 1014.3 hPa | 0 mm | - | - | - |
| 1777906568 | 24.44° C | 39% | 1014.2 hPa | 0 mm | - | - | - |
| 1777906269 | 23.89° C | 38% | 1014.2 hPa | 0 mm | - | - | - |
| 1777905967 | 24.44° C | 38% | 1014.3 hPa | 0 mm | - | - | - |
| 1777905668 | 24.44° C | 38% | 1014.2 hPa | 0 mm | - | - | - |
| 1777905367 | 24.44° C | 38% | 1014.3 hPa | 0 mm | - | - | - |
| 1777905068 | 24.44° C | 38% | 1014.3 hPa | 0 mm | - | - | - |
| 1777904766 | 24.44° C | 37% | 1014.3 hPa | 0 mm | - | - | - |
| 1777904166 | 25° C | 37% | 1014.4 hPa | 0 mm | - | - | - |
| 1777903866 | 25.56° C | 37% | 1014.4 hPa | 0 mm | - | - | - |
| 1777903565 | 25.56° C | 38% | 1014.5 hPa | 0 mm | - | - | - |
| 1777902965 | 25.56° C | 38% | 1014.5 hPa | 0 mm | - | - | - |
| 1777902665 | 25.56° C | 37% | 1014.6 hPa | 0 mm | - | - | - |
| 1777902364 | 25.56° C | 37% | 1014.5 hPa | 0 mm | - | - | - |
| 1777902066 | 25.56° C | 37% | 1014.6 hPa | 0 mm | - | - | - |
* Rain latest hour (hover to see other rain measurements)
** Current wind speed in m/s (hover to see current wind gust speed)